Weather in Kamalia

Pakistan     30°42′21″N   72°39′16″E
temp.,
°C
wind,
m/s
gust,
m/s
humid.,
%
clouds,
%
prec.,
mm/h
press.,
hPa
HPBL,
m
18 april, sun
sun1823:00+21nne5106162 1.4 1012173
02:00+20e36610 0.0 1010111
05:00+19ne33671 0.0 101154
08:00+24ene33470 0.0 1014326
11:00+32ese23270 0.0 10131562
14:00+36nw37150 0.0 10093059
17:00+36nw47120 0.0 10063259
20:00+28nnw49290 0.0 1008161
19 april, mon
mon1923:00+26nne3534100 0.0 100782
02:00+24nne3536100 0.0 100689
05:00+23ne334055 0.0 100733
08:00+28n222649 0.0 1008306
11:00+35n221785 0.0 10072127
14:00+37nnw4612100 0.0 10042974
17:00+36nnw451129 0.0 10032624
20:00+30n23186 0.0 100416
20 april, tue
tue2023:00+27ne3721100 0.0 1005127
02:00+26ne3821100 0.0 1004184
05:00+26w3721100 0.0 1004120
08:00+30nnw6719100 0.0 1005326
11:00+31n4320100 0.0 10061963
14:00+27nne6634100 0.1 10061044
17:00+21n8957100 0.3 1006424
20:00+21nw58463 0.0 1008222
21 april, wed
wed2123:00+19n2557100 0.0 1008134
02:00+18n3761100 0.0 1007177
05:00+18nne356676 0.0 1008117
08:00+23n334496 0.0 1010366
11:00+29wnw2228100 0.1 10101336
14:00+31wnw432377 0.0 10082117
17:00+31wnw2321100 0.0 10072086
20:00+25nnw2232100 0.0 100827
22 april, thu
thu2223:00+24sw11350 0.0 100911
02:00+22ssw22380 0.0 100811
05:00+22s22390 0.0 100818
08:00+27s23285 0.0 1010324
11:00+34s23190 0.0 10092363
14:00+37sw34140 0.0 10053475
17:00+37sw35120 0.0 10044045
20:00+30s221881 0.0 100514